This demonstration page uses our WeatherBlox Daily Observations layout. Learn more.

Left ArrowRight Arrow

36.17497, -115.13722

Hourly Observations for July 24, 2017

Temp ( °F °C ) Dew Point ( °F °C ) Humidity (%) Winds ( mph kmh ) Pressure ( in mb ) Visibility ( mi km ) Precip ( " mm )
12:53 am 00:53 Mostly Clear 93 33.9 56 13.3 29 29 SE 13 20 29.80 1009 10 16 N/A
1:53 am 01:53 Mostly Clear 91 32.8 56 13.3 31 31 ESE 16 26 29.82 1010 10 16 N/A
2:53 am 02:53 Clear 87 30.6 61 16.1 42 42 E 13 20 29.83 1010 10 16 N/A
3:53 am 03:53 Clear 86 30 60 15.6 42 42 ENE 8 13 29.82 1010 10 16 N/A
4:53 am 04:53 Clear 86 30 60 15.6 42 42 ENE 6 9 29.83 1010 10 16 N/A
5:53 am 05:53 Sunny 86 30 59 15 40 40 ESE 8 13 29.84 1011 10 16 N/A
6:53 am 06:53 Sunny 86 30 59 15 40 40 E 9 15 29.85 1011 10 16 N/A
7:53 am 07:53 Sunny 90 32.2 60 15.6 37 37 SE 12 19 29.85 1011 10 16 N/A
8:53 am 08:53 Sunny 89 31.7 61 16.1 39 39 ESE 12 19 29.87 1011 10 16 N/A
9:53 am 09:53 Sunny 91 32.8 60 15.6 35 35 SE 9 15 29.86 1011 10 16 N/A
10:53 am 10:53 Sunny 93 33.9 60 15.6 33 33 S 10 17 29.85 1011 10 16 N/A
11:53 am 11:53 Partly Cloudy 95 35 60 15.6 31 31 SSE 6 9 29.84 1011 10 16 N/A
12:53 pm 12:53 Mostly Sunny 96 35.6 61 16.1 31 31 SE 15 24 29.81 1010 10 16 N/A
1:53 pm 13:53 Partly Cloudy 94 34.4 61 16.1 33 33 SE 15 24 29.80 1009 10 16 N/A
2:35 pm 14:35 Mostly Cloudy 92 33.3 56 13.3 30 30 WSW 13 20 29.68 1005 10 16 N/A
2:53 pm 14:53 Mostly Cloudy 92 33.3 55 12.8 29 29 WSW 14 22 29.80 1009 10 16 N/A
3:53 pm 15:53 Mostly Sunny 92 33.3 58 14.4 32 32 W 9 15 29.79 1009 10 16 N/A
4:53 pm 16:53 Sunny 93 33.9 58 14.4 31 31 S 6 9 29.78 1008 10 16 N/A
5:53 pm 17:53 Sunny 93 33.9 58 14.4 31 31 SW 6 9 29.77 1008 10 16 N/A
6:53 pm 18:53 Sunny 94 34.4 59 15 31 31 WSW 9 15 29.77 1008 10 16 N/A
7:53 pm 19:53 Clear 93 33.9 58 14.4 31 31 W 6 9 29.78 1008 10 16 N/A
8:53 pm 20:53 Clear 91 32.8 57 13.9 32 32 SSW 14 22 29.79 1009 10 16 N/A
9:53 pm 21:53 Mostly Clear 89 31.7 60 15.6 38 38 SSW 12 19 29.81 1010 10 16 N/A
10:53 pm 22:53 Mostly Clear 87 30.6 63 17.2 45 45 SSE 12 19 29.84 1011 10 16 N/A
11:53 pm 23:53 Mostly Clear 87 30.6 62 16.7 43 43 SE 15 24 29.85 1011 10 16 N/A

Powered by AerisWeather